Location: Christian Reformed Church
(43.0975°N, 93.8113°W)
Time: 18:05:26
(UTC+00:00)

Cosmos 2266 Rocket - Pass Details

Date: 13 December 2025
Orbit: 933 x 1007 km, 82.9° (Epoch: 15 January)

Event Time Altitude Azimuth Distance (km) Brightness Sun altitude
Rises 12:46:15 0° 197° (SSW) 3,718 7.1 -9.3°
Reaches altitude 10° 12:48:49 10° 201° (SSW) 2,768 6.4 -8.9°
Maximum altitude 12:55:06 60° 281° (W) 1,130 4.1 -7.8°
Drops below altitude 10° 13:01:20 10° 1° (N) 2,746 6.1 -6.8°
Sets 13:03:54 0° 5° (N) 3,687 6.8 -6.4°
